Regional Weather Roundup
Issued by NWS

Home | Current Version | Previous Version | Text Only | Print | Product List | Glossary On
Versions: 1 2 3 4 5 6 7 8 9 10 11 12 13 14 15 16 17 18 19 20 21 22 23 24 25 26 27 28 29 30 31 32 33 34 35 36 37 38 39 40 41 42 43 44 45 46 47 48 49 50
000
ASUS43 KTOP 282059
RWRKS

WEATHER ROUNDUP FOR KANSAS
NATIONAL WEATHER SERVICE GOODLAND KS
400 PM CDT THU AUG 28 2014

NOTE:  "FAIR" INDICATES FEW OR NO CLOUDS BELOW 12,000 FEET WITH NO
SIGNIFICANT WEATHER AND/OR OBSTRUCTIONS TO VISIBILITY.

KSZ001>006-013>018-027>032-041>047-282200-
NORTHWEST KANSAS

CITY           SKY/WX    TMP DP  RH WIND       PRES   REMARKS
GOODLAND       SUNNY     79  56  45 NW13      29.98F
HAYS           PTSUNNY   82  64  54 CALM      29.88F
HILL CITY      SUNNY     82  63  52 CALM      29.90F
RUSSELL        MOSUNNY   84  67  56 SE21G29   29.86F
$$

KSZ061>065-074>080-084>089-282200-
SOUTHWEST KANSAS

CITY           SKY/WX    TMP DP  RH WIND       PRES   REMARKS
DODGE CITY     SUNNY     84  62  47 VRB5      29.92F
ELKHART          N/A    N/A N/A N/A MISG        N/A
GARDEN CITY    MOSUNNY   82  60  47 N7        29.94F
GREAT BEND     MOSUNNY   86  66  51 SE18G28   29.86F
LIBERAL        SUNNY     86  55  35 W6        29.94F
$$

KSZ066>073-081>083-090>101-282200-
SOUTHEAST KANSAS

CITY           SKY/WX    TMP DP  RH WIND       PRES   REMARKS
CHANUTE        MOSUNNY   94  61  33 S14G22    29.91F
COFFEYVILLE    SUNNY     93  59  31 S10       29.90F
HUTCHINSON     CLOUDY    80  68  66 SE16      29.90F
NEWTON         CLOUDY    73  66  78 S8        29.95F
PARSONS        MOSUNNY   93  60  33 S9G22     29.92F
WICHITA INTL   LGT RAIN  75  69  81 SE9       29.91F
WICHITA JABRA  CLOUDY    75  70  84 S9        29.91F
WINFIELD       LGT RAIN  80  69  69 NW13      29.92F
$$

KSZ007>012-019>026-033>040-048>060-102>105-282200-
NORTHEAST KANSAS

CITY           SKY/WX    TMP DP  RH WIND       PRES   REMARKS
EMPORIA        MOSUNNY   94  62  34 S15       29.90F
LAWRENCE       SUNNY     98  64  32 SW15G22   29.87F HX 100
MANHATTAN      CLOUDY    77  69  76 SW5       29.88F
OLATHE IND     MOSUNNY   93  67  42 S14G22    29.90F HX  96
OLATHE EXE     SUNNY     90  66  45 SW12G21   29.90F
SALINA         CLOUDY    81  67  62 S18G24    29.88F
TOPEKA BILLARD MOSUNNY   94  63  35 S20       29.86F HX  95
TOPEKA FORBES  MOSUNNY   95  62  33 S14G24    29.87F HX  96
$$


USA.gov is the U.S. government's official web portal to all federal, state and local government web resources and services.